Погода в Канонерке

Казахстан     50°43′24″N   79°41′26″E
темп.,
°C
ветер,
м/с
пор.,
м/с
влажн.,
%
обл.,
%
осадки,
мм/ч
давл.,
гПа
погр.,
м
2 марта, вт
вт200:000юз51286100 0.7 1016410
03:00−2зсз4798100 0.3 1016321
06:00−6з3788100 0.4 1018190
09:00−7юз2390100 0.0 1019144
12:00−4юз2382100 0.0 1018306
15:00−2зюз1187100 0.0 1016309
18:00−3с1298100 0.4 101542
21:00−5с3496100 2.0 1016143
3 марта, ср
ср300:00−8сз249699 2.6 101775
03:00−10зюз2396100 0.3 101859
06:00−9зюз4896100 0.6 1020273
09:00−11з61087100 0.1 1023524
12:00−10зюз578497 0.2 1024722
15:00−9юз5684100 0.1 1024722
18:00−11ююз338998 0.1 102558
21:00−13ююв46900 0.0 102797
4 марта, чт
чт400:00−14ююв46882 0.0 102786
03:00−14ююв478477 0.0 1026127
06:00−14ююв578283 0.0 1026118
09:00−12ююв698015 0.0 1026201
12:00−7ююв688146 0.0 1025337
15:00−4ю698186 0.0 1023508
18:00−5ююв6108492 0.0 1023295
21:00−8ююв5108371 0.0 1022182
5 марта, пт
пт500:00−9юв6118063 0.0 1021205
03:00−7ююв7128483 0.0 1018319
06:00−6ююв699592 0.8 1017287
09:00−4ююз4796100 1.4 1017304
12:00−1з71096100 1.9 1021786
15:00−2з8117990 0.1 10251014
18:00−5юз488672 0.1 1029214
21:00−9ю49840 0.0 1030144
6 марта, сб
сб600:00−9ю59815 0.0 1030179
03:00−10ю5979100 0.0 1028191
06:00−11ю588093 0.0 1028146
09:00−9ю5107875 0.0 1027279
12:00−4ююз6107737 0.0 1025419
15:00−2ююз610761 0.0 1023554
18:00−4ююз47850 0.0 1023151
21:00−8ю34830 0.0 102547